Probability
19 19 65 71 68 68 68 65 74 74 68 81 77 74 71 61 71 81 77 77 68 61 68 74 68 68 68 61 65 61 65 65 74 71 71 65 61 68 61 61 52 45 74
16 13 81 74 68 68 71 71 68 74 77 84 81 81 87 77 77 81 84 74 71 68 65 74 68 65 61 65 65 61 65 65 65 71 68 58 58 55 58 58 52 48 68
16 13 42 77 71 65 65 61 71 65 68 81 90 87 77 81 84 81 77 74 71 71 68 68 65 61 58 65 58 52 65 65 71 61 68 42 55 68 61 61 58 68 61
13 19 26 68 61 65 65 68 68 71 68 71 77 77 71 77 71 77 77 74 74 68 61 68 61 52 55 61 55 58 55 52 55 58 32 16 29 65 68 58 65 52 52
16 23 52 61 68 61 65 61 71 71 77 68 77 77 71 77 71 71 77 77 71 68 65 58 55 52 55 55 52 52 55 52 45 48 26 26 39 61 58 52 52 52 45
19 26 48 74 71 71 61 61 65 61 68 68 71 74 65 68 74 68 74 71 71 65 61 55 58 45 45 39 42 45 35 35 35 23 29 32 45 65 52 45 45 48 45
26 35 48 71 74 71 65 65 65 65 65 65 65 55 52 58 61 68 71 61 65 58 61 58 48 45 42 32 35 35 32 42 32 23 26 29 35 61 52 48 45 42 39
19 26 45 74 77 71 68 71 58 61 61 55 68 55 52 55 52 58 58 55 52 55 61 55 42 35 29 35 35 26 32 35 19 10 19 32 55 61 52 45 48 35 39
26 29 32 32 58 71 65 71 65 61 55 52 68 58 55 52 55 39 42 58 48 52 52 48 42 39 35 39 26 35 48 48 19 6 6 19 58 61 45 48 52 42 32
26 26 39 35 42 39 45 68 55 61 52 55 52 61 61 48 48 45 45 52 32 45 39 32 35 45 52 48 39 39 52 52 13 10 10 13 55 48 35 35 39 39 35
29 26 35 32 39 35 32 29 52 61 55 52 48 58 58 55 29 32 29 45 32 39 32 42 42 45 52 45 42 48 45 26 10 13 13 29 48 42 32 35 35 39 39
32 29 42 39 35 39 26 42 52 42 55 55 55 65 65 58 58 32 26 52 42 52 58 52 55 55 42 29 42 48 29 23 6 13 19 42 45 48 29 29 29 29 39
29 26 29 35 52 52 58 48 55 52 65 52 58 65 68 61 52 45 42 48 61 48 45 48 45 32 29 39 42 32 39 29 26 16 16 48 48 39 35 29 29 29 32
26 23 26 39 71 74 71 68 61 48 55 52 71 65 65 71 68 68 68 65 58 61 68 55 61 48 45 42 42 29 32 29 29 23 29 48 52 39 35 35 39 35 39
39 39 42 74 87 87 81 84 55 68 52 52 68 71 65 71 74 71 71 68 65 61 71 61 55 55 52 39 29 32 23 32 26 39 29 39 48 52 45 48 45 42 42
48 48 58 71 81 81 81 87 77 68 81 65 74 61 81 77 81 81 68 77 74 65 61 58 61 61 52 55 48 45 39 42 42 42 29 39 52 65 58 45 42 45 35
52 65 74 68 71 77 81 74 68 58 58 77 81 74 77 77 74 81 74 77 74 68 65 61 52 65 55 55 48 45 45 42 32 35 35 32 39 45 48 55 55 52 45
68 74 74 42 61 74 84 77 71 68 71 71 77 77 74 81 68 77 77 74 81 71 68 68 65 71 68 58 55 58 48 52 45 48 39 35 32 26 35 42 48 52 48
77 81 74 77 77 71 71 71 77 77 81 81 74 74 77 71 58 71 77 81 74 74 71 58 71 74 71 65 55 65 58 52 52 45 39 42 42 39 35 29 42 45 42
74 84 81 84 84 81 74 74 77 74 81 77 84 81 77 74 65 68 87 77 61 71 84 77 77 77 77 74 39 39 55 52 45 48 42 35 45 32 35 32 35 32 39
87 90 87 81 90 90 81 81 77 81 84 90 87 87 74 77 71 71 77 77 84 84 81 65 71 58 68 61 65 52 45 45 48 61 55 52 42 32 29 32 39 29 26
77 87 90 90 84 87 90 90 90 87 87 90 90 90 84 77 77 52 90 87 84 81 81 77 74 68 68 61 68 58 45 55 45 32 45 42 39 35 39 32 35 39 26
77 87 81 94 94 90 90 87 87 90 87 87 87 90 90 84 84 84 81 87 90 74 81 77 74 74 68 65 61 55 45 39 58 45 55 42 42 35 39 42 39 32 26
71 81 94 94 90 94 94 87 87 90 87 87 87 90 90 90 77 81 77 84 84 77 81 68 71 71 71 61 61 65 61 61 48 42 48 48 35 35 35 35 29 35 32
61 74 87 94 94 94 90 90 90 87 87 87 84 87 90 84 77 71 81 81 84 71 74 68 68 71 61 61 58 55 55 52 39 32 29 32 35 39 39 39 39 32 32
68 74 81 94 94 94 90 90 90 90 90 90 87 87 84 84 84 71 77 77 77 74 74 74 74 65 68 65 55 48 45 42 35 29 26 29 26 35 45 42 32 35 35
Height
5880 5880 5880 5880 5881 5881 5882 5882 5882 5882 5882 5882 5883 5883 5884 5884 5885 5886 5887 5887 5888 5889 5890 5891 5892 5892 5893 5894 5894 5895 5896 5896 5897 5897 5898 5898 5898 5899 5899 5899 5899 5899 5899
5881 5880 5880 5881 5881 5881 5882 5882 5883 5883 5883 5884 5884 5885 5885 5886 5887 5887 5888 5888 5889 5890 5891 5892 5892 5893 5894 5894 5895 5896 5896 5897 5897 5897 5898 5898 5898 5899 5899 5899 5899 5899 5899
5882 5881 5881 5881 5881 5882 5882 5883 5883 5884 5884 5885 5885 5886 5887 5887 5888 5889 5890 5889 5890 5891 5892 5892 5893 5894 5895 5895 5896 5897 5897 5897 5898 5898 5898 5898 5898 5899 5899 5899 5899 5899 5899
5882 5882 5881 5881 5882 5882 5883 5883 5884 5884 5885 5885 5886 5887 5887 5888 5889 5890 5890 5891 5892 5892 5893 5893 5894 5894 5895 5896 5897 5897 5898 5898 5898 5898 5899 5899 5899 5899 5899 5899 5899 5898 5899
5883 5882 5881 5880 5881 5882 5883 5883 5884 5884 5885 5886 5886 5887 5888 5889 5890 5891 5891 5892 5893 5893 5894 5894 5894 5895 5896 5897 5897 5898 5898 5898 5899 5899 5899 5899 5899 5899 5899 5898 5898 5898 5898
5884 5883 5881 5879 5880 5881 5883 5884 5884 5885 5886 5886 5887 5888 5889 5890 5891 5891 5892 5892 5893 5894 5894 5895 5895 5896 5896 5897 5897 5898 5899 5899 5899 5899 5899 5899 5899 5899 5899 5899 5898 5898 5898
5885 5884 5882 5880 5881 5882 5883 5883 5884 5885 5886 5887 5888 5889 5890 5891 5891 5892 5892 5893 5893 5894 5894 5895 5895 5896 5897 5897 5898 5898 5899 5899 5899 5899 5899 5899 5899 5899 5899 5899 5898 5898 5898
5886 5885 5884 5883 5883 5883 5884 5884 5885 5885 5886 5888 5889 5890 5891 5891 5892 5892 5893 5893 5894 5894 5895 5895 5896 5896 5897 5897 5898 5898 5899 5899 5899 5899 5899 5899 5899 5899 5899 5899 5898 5898 5898
5889 5887 5886 5885 5885 5885 5885 5885 5886 5886 5887 5888 5889 5890 5891 5892 5892 5893 5893 5894 5894 5894 5895 5896 5896 5897 5897 5898 5898 5898 5898 5898 5899 5899 5899 5899 5899 5899 5899 5899 5898 5898 5898
5890 5890 5889 5888 5887 5887 5887 5887 5887 5888 5888 5889 5890 5891 5892 5893 5893 5893 5894 5894 5895 5895 5896 5896 5897 5897 5897 5897 5898 5898 5898 5898 5899 5899 5899 5899 5899 5899 5899 5898 5898 5898 5898
5893 5892 5891 5890 5890 5889 5889 5889 5889 5889 5890 5891 5891 5892 5893 5893 5893 5894 5894 5895 5895 5896 5896 5896 5897 5897 5898 5898 5898 5898 5899 5899 5899 5899 5899 5899 5899 5899 5899 5898 5898 5898 5898
5895 5894 5893 5892 5892 5892 5891 5891 5891 5891 5891 5892 5893 5893 5894 5894 5894 5894 5895 5895 5895 5896 5896 5897 5897 5898 5898 5898 5898 5899 5899 5899 5899 5899 5899 5899 5899 5899 5898 5898 5898 5897 5897
5897 5896 5896 5895 5894 5894 5893 5893 5893 5893 5893 5893 5894 5894 5894 5894 5894 5895 5895 5895 5896 5896 5896 5897 5897 5898 5898 5898 5898 5899 5899 5899 5899 5899 5899 5899 5899 5898 5898 5898 5897 5897 5896
5899 5898 5898 5897 5896 5896 5895 5895 5895 5895 5894 5895 5895 5895 5895 5895 5895 5895 5895 5895 5896 5896 5896 5897 5897 5897 5898 5898 5898 5898 5899 5899 5899 5899 5899 5899 5898 5898 5898 5897 5897 5896 5896
5901 5900 5899 5899 5898 5898 5897 5896 5896 5896 5896 5896 5896 5895 5895 5895 5895 5894 5894 5895 5896 5896 5896 5896 5896 5897 5897 5897 5897 5898 5898 5899 5899 5899 5898 5898 5898 5898 5897 5897 5896 5895 5895
5902 5902 5901 5901 5900 5900 5899 5899 5898 5898 5898 5897 5897 5896 5896 5896 5895 5895 5895 5895 5895 5895 5895 5895 5896 5896 5896 5896 5897 5897 5897 5898 5898 5897 5897 5897 5897 5897 5896 5896 5895 5894 5894
5904 5904 5903 5903 5902 5902 5901 5900 5900 5899 5899 5899 5898 5897 5897 5897 5896 5896 5896 5896 5895 5895 5895 5895 5895 5896 5896 5896 5896 5897 5897 5896 5896 5896 5896 5896 5896 5895 5895 5894 5894 5893 5893
5905 5905 5905 5904 5904 5903 5903 5902 5901 5901 5900 5900 5899 5899 5898 5898 5897 5897 5897 5896 5896 5895 5895 5895 5895 5895 5896 5896 5897 5896 5896 5896 5896 5895 5895 5895 5895 5894 5893 5893 5892 5892 5891
5906 5906 5906 5905 5905 5904 5904 5903 5903 5902 5902 5901 5900 5900 5899 5899 5898 5898 5897 5897 5896 5896 5895 5895 5895 5895 5896 5895 5896 5896 5895 5895 5895 5894 5894 5894 5893 5893 5892 5891 5891 5890 5889
5908 5907 5907 5906 5906 5905 5905 5904 5904 5903 5902 5902 5901 5900 5900 5899 5899 5898 5898 5897 5896 5896 5895 5895 5895 5895 5895 5894 5894 5895 5894 5894 5893 5893 5893 5892 5891 5891 5890 5889 5889 5888 5887
5909 5908 5908 5907 5907 5906 5905 5905 5905 5904 5903 5903 5902 5901 5900 5900 5899 5899 5898 5897 5896 5896 5895 5895 5894 5894 5894 5893 5893 5893 5893 5892 5892 5891 5891 5890 5890 5889 5888 5888 5887 5886 5885
5909 5909 5908 5908 5907 5907 5906 5906 5905 5904 5904 5903 5903 5902 5901 5900 5900 5899 5898 5897 5896 5895 5895 5894 5894 5894 5894 5893 5892 5892 5892 5892 5890 5890 5889 5888 5888 5887 5886 5886 5885 5884 5883
5910 5909 5909 5908 5908 5907 5906 5906 5905 5905 5904 5904 5903 5902 5901 5901 5900 5899 5898 5897 5896 5895 5895 5894 5893 5893 5893 5892 5891 5891 5890 5890 5889 5888 5887 5886 5885 5884 5883 5883 5882 5881 5881
5910 5909 5909 5908 5907 5907 5906 5906 5905 5905 5904 5903 5903 5902 5901 5900 5900 5899 5898 5897 5896 5895 5894 5893 5892 5892 5892 5891 5890 5889 5889 5888 5887 5886 5885 5884 5883 5882 5881 5880 5880 5879 5878
5910 5909 5908 5908 5907 5907 5906 5905 5905 5904 5904 5903 5902 5901 5901 5900 5899 5898 5897 5896 5895 5894 5893 5892 5891 5891 5890 5889 5888 5888 5887 5885 5885 5884 5883 5882 5881 5880 5879 5878 5877 5876 5875
5910 5909 5908 5907 5907 5906 5906 5905 5904 5904 5903 5902 5901 5901 5900 5899 5898 5897 5896 5895 5894 5893 5892 5891 5890 5889 5888 5887 5886 5885 5884 5883 5882 5881 5880 5879 5878 5877 5876 5875 5874 5873 5872
Wind_Speed
2 2 3 5 5 5 5 5 5 6 6 6 6 6 6 6 6 6 5 5 5 5 5 5 4 4 4 4 4 4 3 3 4 3 3 3 3 3 3 3 3 3 2
2 2 3 4 4 5 5 4 4 5 6 6 6 6 6 5 5 5 5 5 5 5 4 5 5 4 3 3 3 3 2 3 3 3 2 2 2 2 2 2 3 2 1
3 2 2 3 4 4 4 4 4 4 5 6 6 6 6 5 5 5 5 5 4 4 4 5 4 4 3 2 2 2 2 2 2 2 1 1 2 2 2 2 2 2 2
4 2 2 3 4 4 4 4 4 5 5 5 6 6 6 5 5 5 5 4 4 3 3 3 2 2 2 2 2 3 3 3 2 1 0 1 2 2 2 2 2 3 2
4 3 2 1 3 4 4 4 4 5 4 4 5 6 6 5 4 4 3 3 3 2 2 1 2 2 2 1 2 3 2 2 1 1 1 0 1 2 2 3 3 3 2
5 4 3 1 3 4 3 3 4 4 4 4 5 5 5 4 4 3 3 3 2 2 2 2 2 2 1 0 2 2 1 1 1 1 1 1 2 2 3 4 4 4 4
5 4 4 4 4 3 2 2 2 3 4 4 4 4 4 4 4 3 2 2 2 2 1 2 3 2 1 2 2 1 1 1 1 1 1 1 2 2 3 3 4 4 4
5 5 5 5 5 3 3 3 2 3 3 3 4 4 3 3 3 2 2 2 2 1 1 2 3 2 1 2 1 1 0 0 1 0 1 2 2 3 3 3 4 4 4
6 5 5 5 5 4 3 3 4 3 3 3 3 3 3 2 2 2 1 1 1 1 1 2 2 1 1 2 2 1 0 1 1 1 2 2 3 3 3 4 4 4 4
6 6 6 6 6 5 5 4 4 4 4 2 2 3 2 2 1 2 1 2 2 1 0 1 1 2 1 1 1 1 1 1 2 2 2 3 3 4 4 4 4 4 4
7 7 7 6 5 6 6 5 5 5 4 3 2 2 2 1 1 2 2 2 1 1 1 0 1 1 0 0 0 0 1 2 2 2 2 3 3 3 4 4 5 5 5
7 7 8 7 6 6 6 6 6 5 4 3 2 2 1 1 2 2 1 1 1 1 0 0 0 0 0 0 1 1 1 2 2 2 3 3 4 4 4 5 5 5 6
6 7 7 7 6 6 5 5 5 4 4 3 2 3 2 2 3 2 1 1 1 1 0 0 1 2 1 1 1 1 2 2 3 3 4 4 4 4 5 5 6 6 6
7 7 7 7 7 5 5 5 4 4 3 3 3 3 3 3 3 2 1 1 1 2 1 2 2 2 2 2 2 2 2 3 4 4 5 4 4 5 5 6 6 7 7
7 7 7 7 7 6 5 5 5 4 4 4 4 4 4 4 4 3 2 1 2 2 2 2 2 3 3 2 1 2 2 3 4 5 5 5 5 5 6 6 7 7 7
8 8 7 7 7 7 6 6 5 5 5 5 5 5 5 5 4 4 3 3 3 3 2 2 2 2 2 3 2 2 2 3 4 4 5 5 5 6 6 7 7 7 7
7 7 7 7 7 7 7 7 7 6 7 7 6 6 5 5 5 4 4 4 4 4 3 3 3 3 2 2 2 3 3 4 4 5 5 6 6 7 7 8 8 8 8
7 7 7 7 6 6 7 7 7 7 8 8 8 7 7 6 5 5 5 5 4 4 4 3 3 3 2 3 3 4 5 5 5 5 5 6 6 7 7 8 8 8 8
7 7 7 7 7 7 7 7 7 7 8 8 8 7 7 7 7 6 6 6 5 5 5 4 3 3 3 4 5 5 5 5 5 6 6 7 7 8 8 8 8 9 9
7 7 7 6 6 7 7 7 7 7 7 8 7 7 7 7 7 7 7 7 6 6 6 5 4 4 5 5 5 5 6 6 7 7 8 8 8 9 9 9 9 10 10
6 6 6 6 6 7 7 6 6 7 7 7 7 7 7 7 7 7 7 7 7 6 6 6 5 5 6 6 6 7 7 8 8 8 9 9 9 10 10 10 10 10 10
5 5 6 6 6 7 7 7 6 7 7 7 7 7 8 8 8 8 8 8 8 7 7 7 7 7 7 8 8 8 8 9 10 10 10 10 10 11 11 11 11 10 11
5 5 5 6 6 6 7 7 7 7 8 8 8 7 7 8 8 8 9 9 9 9 8 8 8 8 8 8 8 9 9 10 10 10 10 10 11 11 11 11 11 11 12
6 6 6 6 6 6 6 6 7 7 8 8 9 8 8 8 8 9 9 9 9 9 9 9 9 10 10 9 10 10 10 11 11 11 11 12 12 12 12 12 12 12 12
6 7 7 7 7 6 7 7 7 8 8 8 8 8 8 9 9 9 9 10 10 10 10 10 10 10 11 11 11 12 12 12 12 12 12 13 13 13 13 13 12 12 13
7 8 8 7 7 7 7 7 8 8 9 9 9 9 9 10 10 10 11 11 12 12 11 11 11 12 12 12 12 13 14 13 13 13 14 14 14 14 14 13 13 13 13
Wind_Direction
85 106 151 158 165 164 165 160 156 152 145 146 144 139 136 133 136 135 139 139 137 139 141 139 130 128 139 144 152 143 137 122 105 115 111 99 80 72 58 46 53 53 64
58 88 142 153 167 169 165 167 168 162 155 153 153 147 144 141 138 136 142 147 145 142 146 152 140 130 130 127 150 157 143 124 116 115 127 118 88 79 65 45 37 38 57
62 75 139 162 170 168 167 163 170 168 163 159 156 157 155 151 151 154 147 138 148 149 157 156 146 131 119 114 135 139 130 122 129 115 157 115 86 72 51 32 13 3 6
57 60 112 167 182 180 179 175 177 175 171 171 170 167 158 152 149 157 163 158 150 145 152 152 161 139 122 93 129 128 124 127 121 92 69 86 69 50 21 13 358 2 2
48 68 80 152 190 184 180 179 177 179 179 173 168 162 160 158 155 155 159 170 163 150 152 153 168 146 133 97 119 132 132 128 80 63 42 27 19 23 6 11 355 344 339
54 65 52 61 153 160 173 176 183 177 168 149 145 160 166 167 166 163 172 182 177 184 185 179 189 174 152 182 145 138 125 100 32 30 10 345 359 3 352 353 350 346 332
52 50 50 68 111 133 139 132 143 149 145 135 132 141 152 160 160 162 153 167 172 190 216 212 213 210 216 193 159 122 123 26 342 295 358 355 1 354 349 348 346 341 329
51 46 57 71 96 100 103 93 96 110 139 140 140 144 154 158 157 161 150 142 146 157 213 215 227 226 198 160 141 135 176 317 299 302 345 343 357 1 359 352 346 349 345
50 53 51 74 86 89 84 86 93 96 118 142 142 127 132 150 142 119 107 113 121 131 219 212 226 243 175 158 140 128 234 287 290 326 341 334 345 355 347 346 346 349 345
43 52 62 70 75 78 84 91 89 86 91 109 129 122 126 135 105 51 86 87 84 124 225 223 234 247 212 138 136 67 358 331 332 343 345 342 349 351 351 345 342 345 339
40 48 55 61 64 67 72 77 76 79 82 84 101 110 122 128 100 80 84 67 62 80 353 317 260 268 295 43 75 308 339 331 321 328 338 342 348 347 341 336 340 341 336
46 48 52 54 56 62 69 71 68 68 76 82 77 77 74 49 62 69 57 40 5 349 329 120 111 330 227 273 291 294 312 341 329 344 335 334 338 342 336 330 327 328 328
46 45 46 47 49 55 59 58 59 56 60 54 45 27 24 22 36 46 17 355 348 341 353 271 288 277 249 256 292 307 313 330 323 319 321 325 330 337 335 327 323 325 327
46 46 46 44 43 44 47 47 49 45 45 48 39 25 15 17 22 12 347 341 341 347 316 272 273 289 277 277 286 306 317 329 323 320 319 328 330 334 330 322 319 318 319
44 44 43 41 38 40 40 37 45 40 37 30 21 16 16 11 5 358 353 359 358 341 302 284 284 290 294 287 291 308 308 318 313 314 317 326 322 320 319 323 321 316 318
40 41 41 38 38 36 35 37 36 32 30 28 20 15 19 11 1 352 357 3 353 342 332 308 294 302 292 300 305 307 316 319 311 325 323 324 321 316 313 314 318 321 316
36 36 33 32 36 37 38 37 35 33 31 27 22 14 10 10 8 5 360 348 346 350 343 322 299 303 307 298 293 299 319 324 320 320 319 321 318 317 314 313 316 316 317
33 33 28 28 32 33 33 33 30 27 24 25 22 18 15 12 7 359 352 344 341 347 342 338 334 323 310 300 302 304 311 315 318 317 317 320 319 322 318 316 315 311 311
33 32 30 30 28 26 27 26 25 24 22 20 17 16 13 11 8 360 350 348 345 344 344 336 328 320 306 300 297 301 306 311 318 319 314 317 319 321 316 312 312 308 308
27 27 27 24 19 15 14 13 14 14 14 15 15 13 9 6 5 360 353 349 345 340 336 329 319 311 306 296 295 299 303 308 310 313 312 313 315 318 316 311 310 307 308
16 16 13 10 9 6 4 3 1 0 2 6 10 10 7 4 0 355 350 345 340 335 328 324 320 312 310 307 302 299 299 306 310 311 311 312 315 314 309 308 305 307 308
5 3 5 2 2 0 359 357 355 357 359 358 359 4 3 2 356 350 346 343 340 339 332 324 322 316 314 313 305 305 304 305 307 308 306 309 311 310 308 306 307 309 310
1 356 355 357 355 353 351 350 351 354 354 353 351 354 351 351 350 346 344 340 334 330 326 323 324 322 318 317 314 313 312 308 307 307 305 306 307 306 307 309 308 308 310
356 356 353 350 349 347 344 344 344 343 341 339 342 346 345 343 340 339 337 337 334 328 325 323 320 316 316 314 310 312 312 308 308 306 305 304 305 305 307 311 311 311 312
343 347 346 345 344 342 341 340 338 335 334 334 336 339 338 336 335 334 331 328 326 325 322 321 322 319 316 314 310 308 308 305 302 302 303 303 303 303 305 307 307 310 311
332 338 339 336 335 334 335 334 333 333 334 331 327 329 330 331 330 330 327 324 324 323 323 321 318 317 313 312 310 307 307 303 301 300 301 304 304 304 304 304 305 307 307